[[{"header":{"parameterUnit":"m.s-1","parameterCategory":1,"la1":30.2991,"la2":30.254,"lo1":-89.0895,"lo2":-89.0444,"dy":0.0017,"dx":0.0017,"nx":28,"ny":28,"refTime":"2024-10-08T03:00:00:Z","depth":0,"parameterNumber":2,"parameterNumberName":"U-component_of_WINDS"},"data":[0,0,0,0,0,0,0,0,0,0,0,0,0,0,0,0,0,0,0,0,0,0,0,0,0,0,0,0,0,0,0,0,0,0,0,0,0,0,0,0,0,0,0,0,0,0,0,0,0,0,0,0,0,0,0,0,0,0,-1.1819,-1.182,0,-1.1879,-1.188,-1.188,-1.1868,-1.1867,-1.1866,-1.1865,-1.1928,-1.1931,-1.1933,0,0,0,0,0,0,0,0,0,0,0,0,0,-1.1696,-1.1698,-1.1819,-1.182,-1.1821,-1.1879,-1.188,-1.1881,-1.1869,-1.1867,-1.1866,-1.1865,-1.1927,-1.193,-1.1934,0,0,0,0,0,0,0,0,0,0,0,0,0,-1.1752,-1.1699,-1.1819,-1.1822,-1.1823,-1.1879,-1.188,-1.1881,-1.1869,-1.1867,-1.1866,-1.1864,-1.1926,-1.193,-1.1934,-1.1992,0,0,-1.1946,-1.1948,0,0,0,0,0,0,0,0,-1.1749,-1.1756,-1.1821,-1.1822,-1.1823,-1.1865,-1.1859,-1.1918,-1.1869,-1.1851,-1.1865,-1.1863,-1.1908,-1.1914,-1.1929,-1.1995,-1.1998,-1.1947,-1.1949,-1.1951,-1.1952,0,0,0,0,0,0,0,-1.1745,-1.1754,-1.1843,-1.1822,-1.1823,-1.182,-1.1826,-1.187,-1.1888,-1.1853,-1.1852,-1.1859,-1.1909,-1.1925,-1.193,-1.1998,-1.1947,-1.195,-1.1953,-1.1954,-1.2116,-1.2117,0,0,0,0,0,0,-1.174,-1.1751,-1.1841,-1.1845,-1.1781,-1.1824,-1.1831,-1.1853,-1.1888,-1.1892,-1.1861,-1.1858,-1.1919,-1.1925,-1.1932,-1.2003,-1.1951,-1.1955,-1.1957,-1.2114,-1.2116,-1.2118,0,0,0,0,0,0,-1.1737,-1.1748,-1.1839,-1.1797,-1.1809,-1.1828,-1.1853,-1.1855,-1.1871,-1.1894,-1.1897,-1.1874,-1.1918,-1.1927,-1.1977,-1.2005,-1.1957,-1.196,-1.2112,-1.2114,-1.2117,-1.2145,0,0,0,0,0,0,-1.1734,-1.1747,-1.1769,-1.1798,-1.1811,-1.1882,-1.1854,-1.1857,-1.1878,-1.1876,-1.1907,-1.1911,-1.1917,-1.1971,-1.1981,-1.201,-1.1963,-1.2109,-1.2113,-1.2116,-1.2141,-1.2148,-1.2154,0,0,0,0,0,-1.1729,-1.1775,-1.177,-1.1781,-1.1839,-1.1884,-1.1892,-1.1898,-1.188,-1.1903,-1.1917,-1.191,-1.2,-1.1976,-1.1988,-1.2018,-1.2107,-1.2112,-1.2116,-1.2139,-1.2147,-1.2154,0,0,0,0,0,0,-1.1749,-1.1779,-1.1774,-1.183,-1.1855,-1.1882,-1.1911,-1.1906,-1.1936,-1.1933,-1.194,-1.1947,-1.1999,-1.2013,-1.1986,-1.2076,-1.2051,-1.2058,-1.2065,-1.2073,-1.2079,-1.2075,-1.1967,0,0,0,0,0,-1.176,-1.1794,-1.1818,-1.1865,-1.1877,-1.1892,-1.1912,-1.1914,-1.194,-1.1951,-1.1969,-1.1994,-1.2029,-1.2051,-1.2084,-1.2143,-1.215,-1.2169,-1.2175,-1.218,-1.2186,-1.2219,-1.2228,-1.2132,-1.2132,-1.2132,0,0,-1.1783,-1.1803,-1.1824,-1.187,-1.1889,-1.1924,-1.1901,-1.1939,-1.1966,-1.1956,-1.2006,-1.202,-1.2049,-1.2104,-1.2129,-1.2118,-1.2214,-1.2185,-1.2189,-1.2193,-1.2224,-1.2234,-1.2242,-1.2135,-1.2134,-1.2134,0,0,-1.1844,-1.1862,-1.1904,-1.1923,-1.1952,-1.1961,-1.1971,-1.1999,-1.2008,-1.2057,-1.2051,-1.2083,-1.2141,-1.2162,-1.2181,-1.2248,-1.2243,-1.2259,-1.2292,-1.2324,-1.2331,-1.2338,-1.2363,-1.2372,-1.2264,-1.2264,-1.2264,0,-1.1869,-1.1922,-1.1926,-1.1965,-1.1985,-1.1977,-1.202,-1.2039,-1.2077,-1.2092,-1.2078,-1.2151,-1.217,-1.2231,-1.2247,-1.2262,-1.2274,-1.2256,-1.233,-1.2337,-1.2343,-1.2367,-1.2377,-1.2266,-1.2266,-1.2266,-1.2266,0,-1.1952,-1.1989,-1.2019,-1.2056,-1.2079,-1.212,-1.213,-1.2153,-1.2153,-1.2164,-1.2214,-1.2236,-1.2274,-1.2288,-1.2288,-1.2349,-1.2341,-1.2328,-1.2304,-1.2354,-1.2377,-1.2386,-1.2269,-1.2268,-1.2268,-1.2267,0,0,-1.2029,-1.2066,-1.2078,-1.2094,-1.2126,-1.2154,-1.2194,-1.223,-1.225,-1.2277,-1.2311,-1.236,-1.2349,-1.237,-1.2373,-1.24,-1.2454,-1.2385,-1.2385,-1.2398,-1.2522,-1.2533,-1.2543,-1.2449,-1.2451,-1.2452,-1.252,0,-1.2093,-1.2164,-1.2168,-1.2233,-1.2267,-1.2259,-1.2294,-1.2317,-1.2328,-1.2359,-1.237,-1.2406,-1.2387,-1.24,-1.2427,-1.2441,-1.2479,-1.2436,-1.2483,-1.2484,-1.2477,-1.2555,-1.2566,-1.263,-1.2529,-1.2531,-1.2532,0,-1.2178,-1.2207,-1.2275,-1.2301,-1.2315,-1.2347,-1.238,-1.2409,-1.2435,-1.2441,-1.2464,-1.2462,-1.2504,-1.2477,-1.2535,-1.2505,-1.2524,-1.2534,-1.2537,-1.2543,-1.2512,-1.2565,-1.265,-1.266,-1.2546,-1.2545,-1.2544,0,-1.2229,-1.2284,-1.2332,-1.2347,-1.2378,-1.2401,-1.2415,-1.2439,-1.246,-1.2489,-1.2503,-1.2536,-1.2555,-1.2581,-1.2589,-1.2568,-1.2647,-1.262,-1.2654,-1.2654,-1.2672,-1.2672,-1.2763,-1.2682,-1.2681,-1.2681,-1.2681,0,-1.2302,-1.2344,-1.2356,-1.2385,-1.2432,-1.2436,-1.2483,-1.2496,-1.2517,-1.2549,-1.2544,-1.2575,-1.2582,-1.2614,-1.262,-1.2668,-1.2676,-1.2682,-1.2684,-1.2684,-1.2683,-1.2698,-1.2694,-1.2684,-1.2683,-1.2683,-1.2682,0,-1.2368,-1.2377,-1.2429,-1.2454,-1.2461,-1.2495,-1.2516,-1.2545,-1.2554,-1.2595,-1.2605,-1.262,-1.2657,-1.2667,-1.2712,-1.2716,-1.2772,-1.2769,-1.2764,-1.2764,-1.2798,-1.2795,-1.2904,-1.2919,-1.2826,-1.2826,-1.2827,0,-1.2414,-1.2447,-1.2475,-1.2496,-1.2511,-1.2545,-1.2566,-1.2571,-1.2594,-1.2625,-1.2651,-1.2687,-1.2717,-1.2776,-1.2792,-1.2826,-1.2824,-1.286,-1.2829,-1.2829,-1.2827,-1.2825,-1.2829,-1.2866,-1.2867,-1.2868,-1.2869,0,-1.2497,-1.25,-1.2531,-1.2563,-1.2589,-1.2615,-1.264,-1.2657,-1.2666,-1.2691,-1.2729,-1.2752,-1.2797,-1.2834,-1.2868,-1.2883,-1.2878,-1.2878,-1.2888,-1.2889,-1.2885,-1.2889,-1.2781,-1.2876,-1.2875,-1.2874,-1.2874,-1.2874,-1.2556,-1.2584,-1.2609,-1.2643,-1.2662,-1.2685,-1.2714,-1.2726,-1.2758,-1.2795,-1.2795,-1.2837,-1.2862,-1.2907,-1.2923,-1.2956,-1.2946,-1.296,-1.2964,-1.2967,-1.2971,-1.2878,-1.2962,-1.2962,-1.2962,-1.2962,-1.2962,0,-1.2639,-1.2654,-1.2686,-1.2721,-1.2748,-1.2739,-1.2766,-1.279,-1.2826,-1.2849,-1.2878,-1.2922,-1.2957,-1.2975,-1.301,-1.3032,-1.3031,-1.3042,-1.3041,-1.3045,-1.2978,-1.2967,-1.3042,-1.3042,-1.3042,-1.3042,-1.3042,-1.3042,-1.2686,-1.2734,-1.274,-1.2797,-1.2812,-1.2852,-1.2868,-1.289,-1.2908,-1.2957,-1.2986,-1.2997,-1.3018,-1.3054,-1.3086,-1.309,-1.3104,-1.3117,-1.312,-1.3058,-1.3049,-1.3042,-1.3031,-1.3119,-1.3119,-1.3184,-1.3185,-1.3185]},{"header":{"parameterUnit":"m.s-1","parameterCategory":1,"la1":30.2991,"la2":30.254,"lo1":-89.0895,"lo2":-89.0444,"dy":0.0017,"dx":0.0017,"nx":28,"ny":28,"refTime":"2024-10-08T03:00:00:Z","depth":0,"parameterNumber":3,"parameterNumberName":"V-component_of_WINDS"},"data":[0,0,0,0,0,0,0,0,0,0,0,0,0,0,0,0,0,0,0,0,0,0,0,0,0,0,0,0,0,0,0,0,0,0,0,0,0,0,0,0,0,0,0,0,0,0,0,0,0,0,0,0,0,0,0,0,0,0,-4.857,-4.8571,0,-4.86,-4.8601,-4.8601,-4.8548,-4.8546,-4.8545,-4.8543,-4.8569,-4.8572,-4.8574,0,0,0,0,0,0,0,0,0,0,0,0,0,-4.8462,-4.8465,-4.857,-4.8571,-4.8571,-4.86,-4.8601,-4.8601,-4.8548,-4.8546,-4.8544,-4.8542,-4.8568,-4.8571,-4.8574,0,0,0,0,0,0,0,0,0,0,0,0,0,-4.8503,-4.8465,-4.857,-4.8548,-4.8547,-4.86,-4.8601,-4.8601,-4.8549,-4.8546,-4.8544,-4.8541,-4.8568,-4.8571,-4.8574,-4.8649,0,0,-4.8585,-4.8587,0,0,0,0,0,0,0,0,-4.85,-4.8507,-4.8551,-4.855,-4.8548,-4.8568,-4.8572,-4.8617,-4.855,-4.8548,-4.8543,-4.854,-4.8571,-4.8574,-4.8585,-4.8651,-4.8652,-4.8586,-4.8588,-4.8589,-4.859,0,0,0,0,0,0,0,-4.8498,-4.8505,-4.8582,-4.8552,-4.855,-4.8536,-4.8538,-4.8581,-4.8574,-4.8548,-4.8544,-4.8549,-4.8569,-4.8582,-4.8585,-4.8652,-4.8585,-4.8589,-4.8591,-4.8592,-4.8781,-4.8784,0,0,0,0,0,0,-4.8498,-4.8503,-4.8581,-4.8583,-4.8517,-4.854,-4.8543,-4.8564,-4.8573,-4.8572,-4.8551,-4.8546,-4.8577,-4.8581,-4.8586,-4.8675,-4.8589,-4.8592,-4.8594,-4.8778,-4.8782,-4.8785,0,0,0,0,0,0,-4.8496,-4.8506,-4.858,-4.8542,-4.855,-4.8544,-4.8569,-4.8566,-4.8579,-4.8575,-4.8573,-4.8565,-4.8575,-4.8581,-4.8634,-4.8675,-4.8594,-4.8597,-4.8775,-4.8779,-4.8783,-4.8853,0,0,0,0,0,0,-4.8493,-4.8505,-4.8535,-4.8543,-4.8553,-4.8629,-4.8571,-4.8569,-4.8586,-4.858,-4.8588,-4.8587,-4.8574,-4.863,-4.8638,-4.8678,-4.86,-4.8771,-4.8777,-4.8782,-4.8847,-4.8859,-4.887,0,0,0,0,0,-4.849,-4.8552,-4.8536,-4.8546,-4.8589,-4.8632,-4.8637,-4.8621,-4.8589,-4.8618,-4.8616,-4.8587,-4.8669,-4.8635,-4.8644,-4.8687,-4.8768,-4.8775,-4.8781,-4.8842,-4.8857,-4.8869,0,0,0,0,0,0,-4.8546,-4.8552,-4.8535,-4.8602,-4.8617,-4.8623,-4.8658,-4.8637,-4.866,-4.8653,-4.8631,-4.8634,-4.8692,-4.8694,-4.8656,-4.876,-4.8713,-4.8722,-4.8756,-4.877,-4.8781,-4.878,-4.8603,0,0,0,0,0,-4.8567,-4.8602,-4.8605,-4.8664,-4.8672,-4.8665,-4.8682,-4.8669,-4.8683,-4.8688,-4.869,-4.8703,-4.8732,-4.8751,-4.8777,-4.8847,-4.8848,-4.8881,-4.8892,-4.8901,-4.8909,-4.8947,-4.8961,-4.8806,-4.8806,-4.8806,0,0,-4.8608,-4.8617,-4.864,-4.8675,-4.8685,-4.8721,-4.867,-4.871,-4.8736,-4.8693,-4.8745,-4.8747,-4.876,-4.8822,-4.885,-4.8826,-4.8952,-4.891,-4.8917,-4.892,-4.8955,-4.897,-4.8983,-4.8811,-4.881,-4.8809,0,0,-4.8704,-4.8714,-4.8764,-4.8776,-4.8792,-4.8787,-4.8799,-4.8808,-4.8809,-4.886,-4.883,-4.8859,-4.8909,-4.892,-4.8932,-4.9034,-4.9008,-4.9043,-4.9102,-4.9139,-4.9151,-4.9162,-4.9198,-4.9212,-4.905,-4.9051,-4.9051,0,-4.8754,-4.8809,-4.8792,-4.8836,-4.8852,-4.8817,-4.8868,-4.8879,-4.8903,-4.8914,-4.8888,-4.8951,-4.8957,-4.9022,-4.9047,-4.9058,-4.9071,-4.9042,-4.9151,-4.9161,-4.9171,-4.9206,-4.9219,-4.9055,-4.9054,-4.9054,-4.9053,0,-4.8869,-4.8908,-4.8946,-4.8973,-4.8993,-4.9039,-4.903,-4.9052,-4.9037,-4.9035,-4.9087,-4.9094,-4.9121,-4.9136,-4.9121,-4.9199,-4.9184,-4.9155,-4.9107,-4.919,-4.9223,-4.9236,-4.9061,-4.9059,-4.9058,-4.9057,0,0,-4.9,-4.9018,-4.9033,-4.9045,-4.9061,-4.909,-4.9134,-4.9163,-4.9183,-4.92,-4.9237,-4.9281,-4.9254,-4.9268,-4.9254,-4.9287,-4.9367,-4.9253,-4.9253,-4.9275,-4.9454,-4.9476,-4.9492,-4.9351,-4.9353,-4.9355,-4.9453,0,-4.9096,-4.9175,-4.9163,-4.9239,-4.9274,-4.9242,-4.9281,-4.9295,-4.9293,-4.9322,-4.9319,-4.9351,-4.9314,-4.9322,-4.9353,-4.9351,-4.9403,-4.9344,-4.9384,-4.9385,-4.9382,-4.9509,-4.9532,-4.9625,-4.9466,-4.9468,-4.9469,0,-4.9218,-4.9242,-4.9323,-4.9335,-4.9349,-4.9385,-4.941,-4.9438,-4.9453,-4.9449,-4.9466,-4.9446,-4.949,-4.9442,-4.9502,-4.9462,-4.9477,-4.9479,-4.9482,-4.9485,-4.9433,-4.9516,-4.9654,-4.9668,-4.9489,-4.9487,-4.9486,0,-4.9306,-4.9359,-4.9414,-4.9425,-4.944,-4.9466,-4.9473,-4.9485,-4.9504,-4.9526,-4.9537,-4.9564,-4.9578,-4.9598,-4.9586,-4.9552,-4.9648,-4.9599,-4.9645,-4.9646,-4.9667,-4.9666,-4.981,-4.9677,-4.9676,-4.9676,-4.9676,0,-4.9414,-4.9465,-4.9455,-4.9489,-4.9544,-4.9529,-4.9584,-4.9587,-4.9598,-4.9631,-4.9604,-4.9635,-4.9617,-4.9647,-4.9637,-4.9688,-4.9694,-4.9692,-4.9689,-4.9695,-4.9696,-4.9705,-4.9699,-4.968,-4.9679,-4.9678,-4.9678,0,-4.9522,-4.9517,-4.9576,-4.9586,-4.959,-4.9631,-4.9639,-4.967,-4.9667,-4.9709,-4.9718,-4.9713,-4.9747,-4.9737,-4.9772,-4.9766,-4.9831,-4.9819,-4.9827,-4.9824,-4.9872,-4.9867,-5.0027,-5.0047,-4.9901,-4.9902,-4.9903,0,-4.9592,-4.963,-4.9646,-4.9667,-4.9677,-4.9712,-4.9731,-4.9717,-4.9738,-4.9758,-4.9787,-4.9819,-4.9844,-4.9899,-4.9897,-4.9925,-4.9913,-4.9967,-4.9917,-4.9922,-4.9915,-4.9913,-4.9917,-4.9977,-4.9979,-4.9981,-4.9982,0,-4.9716,-4.9712,-4.9742,-4.9772,-4.9797,-4.9819,-4.9838,-4.9857,-4.9844,-4.9869,-4.9905,-4.9924,-4.9962,-4.9993,-5.0018,-5.0024,-5.0001,-4.9998,-5.001,-5.0016,-5.002,-5.0019,-4.9854,-4.9994,-4.9993,-4.9992,-4.9991,-4.9991,-4.9807,-4.9841,-4.9857,-4.9892,-4.9906,-4.9925,-4.9955,-4.9957,-4.9987,-5.0018,-5.0007,-5.0048,-5.0061,-5.0093,-5.0102,-5.0133,-5.0112,-5.013,-5.0134,-5.0139,-5.0145,-5.0015,-5.0137,-5.0137,-5.0136,-5.0136,-5.0136,0,-4.9931,-4.994,-4.9972,-5.0002,-5.0029,-5.0007,-5.0028,-5.0051,-5.0088,-5.0104,-5.0129,-5.017,-5.0201,-5.0203,-5.0231,-5.0256,-5.0246,-5.0264,-5.0262,-5.0263,-5.0162,-5.0149,-5.0271,-5.0271,-5.0271,-5.0271,-5.0271,-5.0271,-4.9998,-5.0054,-5.0052,-5.0114,-5.0122,-5.0164,-5.0178,-5.0195,-5.0208,-5.0255,-5.0281,-5.0283,-5.0293,-5.0322,-5.035,-5.0349,-5.0361,-5.0383,-5.0379,-5.0284,-5.027,-5.0258,-5.0245,-5.0386,-5.0386,-5.0478,-5.0478,-5.0479]}]]